Weather at Exeter International Airport

Public forecast

Using degrees Celsius for public forecast. Weather courtesy of forecast.io.

Current aviation weather report (METAR) for Exeter International Airport

Report is more than 2 hours old.

Retrieved 2021/05/06 15:20 UTC (2 hours ago):

EGTE 061520Z 30011KT 280V340 9999 SCT025 12/M02 Q1007

Aviation forecast (TAF) for Exeter International Airport

Forecast is more than 12 hours old.

Retrieved 2012/04/19 12:15 UTC (9 years ago):

TAF TAF EGTE 191401Z 1912/1924 31016KT 9999 SCT030 SCT035 PROB40 TEMPO 1915/1918 7000 SHRA BKN014